Imperial, NE

6:45 PM MDT on April 21, 2018 (GMT -0600)
Imperial Municipal

Weather History for KIML - October, 2011

Change the Weather History Date:

Friday, October 7, 2011

  Actual Average Record
Temperature  
Mean Temperature 63 °F 55 °F  
Max Temperature 77 °F 69 °F 91 °F (1934)
Min Temperature 48 °F 40 °F 16 °F (1952)
Degree Days  
Heating Degree Days 2 11  
Month to date heating degree days 5 66  
Cooling Degree Days 0 0  
Month to date cooling degree days 17 3  
Year to date cooling degree days 1096 960  
Growing Degree Days 12 (Base 50)    
Moisture  
Dew Point 39 °F    
Average Humidity 49    
Maximum Humidity 78    
Minimum Humidity 19    
Precipitation  
Precipitation 0.01 in 0.05 in 0.86 in (1992)
Sea Level Pressure  
Sea Level Pressure 29.76 in    
Wind  
Wind Speed 11 mph (SSW)    
Max Wind Speed 26 mph    
Max Gust Speed 33 mph    
Visibility 10 miles    
Events Rain , Thunderstorm    
T = Trace of Precipitation, MM = Missing Value Source: NWS Daily Summary

Daily Weather History Graph

Daily Weather History Graph

Search for Another Location

Airport or City:

Astronomy

Oct. 07, 2011 Rise Set
Actual Time 6:48 AM MDT 6:19 PM MDT
Civil Twilight 6:21 AM MDT 6:46 PM MDT
Nautical Twilight 5:49 AM MDT 7:17 PM MDT
Astronomical Twilight 5:18 AM MDT 7:49 PM MDT
Moon 4:03 PM MDT (10/7) 2:38 AM MDT (10/7)
Length of Visible Light 12h 24m
Length of Day
11h 30m
Waxing Gibbous, 84% of the Moon is Illuminated
Oct 7
Waxing Gibbous
Oct 11
Full
Oct 19
Last Quarter
Oct 26
New
Nov 2
First Quarter

Hourly Weather History & Observations

Time (MDT) Temp. Dew Point Humidity Pressure Visibility Wind Dir Wind Speed Gust Speed Precip Events Conditions
12:53 AM 59.0 °F 42.1 °F 53% 29.61 in 10.0 mi SW 8.1 mph - N/A   Partly Cloudy
1:53 AM 55.9 °F 41.0 °F 57% 29.66 in 10.0 mi WSW 8.1 mph - N/A   Clear
2:53 AM 55.9 °F 36.0 °F 47% 29.68 in 10.0 mi West 11.5 mph - N/A   Partly Cloudy
3:53 AM 53.1 °F 37.0 °F 55% 29.70 in 10.0 mi WSW 6.9 mph - N/A   Mostly Cloudy
4:53 AM 53.1 °F 36.0 °F 52% 29.72 in 10.0 mi West 5.8 mph - N/A   Mostly Cloudy
5:53 AM 52.0 °F 36.0 °F 54% 29.75 in 10.0 mi WSW 8.1 mph - N/A   Mostly Cloudy
6:53 AM 48.9 °F 36.0 °F 61% 29.77 in 10.0 mi SSW 8.1 mph - N/A   Partly Cloudy
7:53 AM 48.9 °F 35.1 °F 59% 29.79 in 10.0 mi SSW 3.5 mph - N/A   Clear
8:53 AM 52.0 °F 37.0 °F 57% 29.81 in 10.0 mi WSW 9.2 mph - N/A   Clear
9:53 AM 63.0 °F 28.0 °F 27% 29.81 in 10.0 mi SW 11.5 mph - N/A   Clear
10:53 AM 66.2 °F 30.2 °F 26% 29.85 in 10.0 mi SSW 17.3 mph 25.3 mph N/A   Clear
11:53 AM 70.0 °F 32.0 °F 25% 29.78 in 10.0 mi SSW 16.1 mph - N/A   Clear
12:53 PM 73.0 °F 28.9 °F 20% 29.76 in 10.0 mi SSW 19.6 mph 31.1 mph N/A   Clear
1:53 PM 75.0 °F 30.0 °F 19% 29.74 in 10.0 mi South 20.7 mph 29.9 mph N/A   Clear
2:53 PM 77.0 °F 33.1 °F 20% 29.73 in 10.0 mi SSW 15.0 mph 24.2 mph N/A   Clear
3:53 PM 75.9 °F 33.1 °F 21% 29.75 in 10.0 mi South 15.0 mph 24.2 mph N/A   Clear
4:53 PM 75.0 °F 37.0 °F 25% 29.76 in 10.0 mi South 17.3 mph 25.3 mph N/A   Clear
5:53 PM 72.0 °F 41.0 °F 33% 29.75 in 10.0 mi South 13.8 mph - N/A   Clear
6:53 PM 66.0 °F 42.1 °F 42% 29.76 in 10.0 mi South 4.6 mph - N/A   Clear
7:53 PM 60.1 °F 46.0 °F 60% 29.80 in 10.0 mi Calm Calm - N/A   Partly Cloudy
8:53 PM 59.0 °F 50.0 °F 72% 29.83 in 10.0 mi Calm Calm - 0.00 in Rain Light Rain
9:53 PM 62.1 °F 50.0 °F 65% 29.78 in 10.0 mi ESE 5.8 mph - 0.00 in   Overcast
10:53 PM 63.0 °F 55.0 °F 75% 29.75 in 10.0 mi ESE 10.4 mph - 0.00 in   Partly Cloudy
11:07 PM 64.4 °F 55.4 °F 73% 29.80 in 10.0 mi East 10.4 mph - N/A   Mostly Cloudy
11:53 PM 63.0 °F 57.0 °F 81% 29.77 in 10.0 mi ESE 12.7 mph - N/A Thunderstorm Overcast